FW6922 Weather Reports


time (UTC)temp
C
wind
direction
speed
KPH
gust
KPH
rain 1hr
cm
rain 24hr
cm
rain mn
cm
humidity
%
barometer
mb
20260507171533 14 288 19.3 29.0 0.00 0.00 0.00 62
20260507170032 14 291 22.5 30.6 0.00 0.00 0.00 63
20260507164531 14 293 17.7 25.7 0.00 0.00 0.00 65
20260507163110 13 284 14.5 22.5 0.00 0.00 0.00 67
20260507161644 13 262 14.5 22.5 0.00 0.00 0.00 70
20260507160032 13 259 16.1 25.7 0.00 0.00 0.00 72
20260507154645 12 254 11.3 19.3 0.00 0.00 0.00 74
20260507153103 12 240 8.0 14.5 0.00 0.00 0.00 75
20260507151530 11 247 9.7 17.7 0.00 0.00 0.00 76
20260507150034 11 268 9.7 20.9 0.00 0.00 0.00 80
20260507143030 11 229 12.9 19.3 0.00 0.00 0.00 79
20260507140030 10 284 19.3 30.6 0.00 0.00 0.00 81
20260507133029 9 293 12.9 22.5 0.00 0.00 0.00 83
20260507131531 9 287 0.0 9.7 0.00 0.00 0.00 83
20260507130029 10 296 4.8 14.5 0.00 0.00 0.00 83
20260507124529 10 282 9.7 16.1 0.00 0.00 0.00 83
20260507123029 10 298 9.7 16.1 0.00 0.00 0.00 83
20260507114535 10 326 11.3 19.3 0.00 0.00 0.00 83
20260507113148 10 317 12.9 22.5 0.00 0.00 0.00 83
20260507110029 10 3 8.0 16.1 0.00 0.00 0.00 81
20260507103106 11 274 8.0 19.3 0.00 0.00 0.00 79
20260507101530 11 270 6.4 17.7 0.00 0.00 0.00 78
20260507100046 11 259 6.4 12.9 0.00 0.00 0.00 78
20260507091602 12 291 14.5 22.5 0.00 0.00 0.00 79
20260507090105 12 279 3.2 20.9 0.00 0.00 0.00 80
20260507084602 12 253 6.4 14.5 0.00 0.00 0.00 79
20260507083146 12 278 11.3 22.5 0.00 0.00 0.00 79
20260507080029 12 279 17.7 24.1 0.00 0.00 0.00 78
20260507073031 12 273 14.5 24.1 0.00 0.00 0.00 79
20260507071531 12 272 8.0 17.7 0.00 0.00 0.00 78
20260507070036 13 277 9.7 16.1 0.00 0.00 0.00 77
20260507064531 13 256 4.8 11.3 0.00 0.00 0.00 76
20260507063030 13 270 11.3 19.3 0.00 0.00 0.00 76
20260507061530 13 263 11.3 20.9 0.00 0.00 0.00 76
20260507054529 13 266 11.3 19.3 0.00 0.00 0.00 76
20260507053055 13 276 11.3 17.7 0.00 0.00 0.00 73
20260507051529 13 272 4.8 16.1 0.00 0.00 0.00 70
20260507044529 15 283 8.0 14.5 0.00 0.00 0.00 63
20260507043030 15 254 9.7 16.1 0.00 0.00 0.00 57
20260507040036 16 255 9.7 17.7 0.00 0.00 0.00 55
20260507033029 16 280 12.9 19.3 0.00 0.00 0.00 55
20260507031602 17 282 14.5 25.7 0.00 0.00 0.00 54
20260507024530 17 292 11.3 27.4 0.00 0.00 0.00 55
20260507023030 17 286 11.3 22.5 0.00 0.00 0.00 55
20260507020029 17 312 6.4 17.7 0.00 0.00 0.00 54
20260507014528 17 290 8.0 20.9 0.00 0.00 0.00 54
20260507013030 18 298 6.4 17.7 0.00 0.00 0.00 54
20260507011530 18 287 9.7 27.4 0.00 0.00 0.00 52
20260507004530 19 272 12.9 25.7 0.00 0.00 0.00 51
20260507003031 19 275 9.7 22.5 0.00 0.00 0.00 49
20260507001606 19 288 9.7 24.1 0.00 0.00 0.00 48
20260507000108 20 281 12.9 29.0 0.00 0.00 0.00 48
20260506234531 20 281 17.7 29.0 0.00 0.00 0.00 49
20260506233032 21 265 25.7 43.5 0.00 0.00 0.00 48
20260506230028 20 256 27.4 43.5 0.00 0.00 0.00 48
20260506224529 21 250 29.0 45.1 0.00 0.00 0.00 48
20260506223029 21 251 27.4 51.5 0.00 0.00 0.00 49
20260506221530 21 252 22.5 40.2 0.00 0.00 0.00 50
20260506220029 21 258 20.9 38.6 0.00 0.00 0.00 49
20260506214532 21 259 19.3 38.6 0.00 0.00 0.00 49
20260506213029 22 267 17.7 35.4 0.00 0.00 0.00 50
20260506211529 22 258 22.5 37.0 0.00 0.00 0.00 51
20260506210029 21 258 24.1 38.6 0.00 0.00 0.00 52
20260506203102 21 268 19.3 30.6 0.00 0.00 0.00 54
20260506201540 21 272 22.5 38.6 0.00 0.00 0.00 55
20260506200028 21 259 20.9 38.6 0.00 0.00 0.00 57
20260506194531 20 274 22.5 35.4 0.00 0.00 0.00 58
20260506191531 20 283 27.4 46.7 0.00 0.00 0.00 61
20260506190031 19 282 22.5 43.5 0.00 0.00 0.00 61
20260506184604 18 281 25.7 41.8 0.00 0.00 0.00 63
20260506183029 18 281 29.0 43.5 0.00 0.00 0.00 63
20260506181646 18 275 29.0 43.5 0.00 0.00 0.00 64
20260506180106 18 271 25.7 40.2 0.00 0.00 0.00 64
20260506174647 18 281 17.7 33.8 0.00 0.00 0.00 64
20260506173029 18 283 17.7 27.4 0.00 0.00 0.00 64